[[{"header":{"parameterUnit":"m.s-1","parameterCategory":1,"la1":30.2991,"la2":30.254,"lo1":-89.0895,"lo2":-89.0444,"dy":0.0017,"dx":0.0017,"nx":28,"ny":28,"refTime":"2024-03-23T09:00:00:Z","depth":0,"parameterNumber":2,"parameterNumberName":"U-component_of_WINDS"},"data":[0,0,0,0,0,0,0,0,0,0,0,0,0,0,0,0,0,0,0,0,0,0,0,0,0,0,0,0,0,0,0,0,0,0,0,0,0,0,0,0,0,0,0,0,0,0,0,0,0,0,0,0,0,0,0,0,0,0,2.1456,2.1456,0,2.1479,2.148,2.148,2.1415,2.1413,2.1411,2.141,2.1435,2.1437,2.144,0,0,0,0,0,0,0,0,0,0,0,0,0,2.1358,2.136,2.1456,2.1456,2.1457,2.1479,2.148,2.148,2.1416,2.1413,2.1411,2.1409,2.1434,2.1437,2.144,0,0,0,0,0,0,0,0,0,0,0,0,0,2.1393,2.1361,2.1456,2.1427,2.1425,2.1479,2.148,2.148,2.1416,2.1413,2.141,2.1408,2.1433,2.1436,2.144,2.1524,0,0,2.1452,2.1453,0,0,0,0,0,0,0,0,2.1391,2.1397,2.1431,2.1429,2.1427,2.1441,2.1454,2.1495,2.1417,2.142,2.141,2.1406,2.1439,2.1442,2.1453,2.1525,2.1526,2.1452,2.1454,2.1456,2.1457,0,0,0,0,0,0,0,2.1389,2.1395,2.1465,2.1432,2.1429,2.1414,2.1416,2.1462,2.1446,2.1419,2.1415,2.1418,2.1438,2.145,2.1454,2.1526,2.1452,2.1455,2.1458,2.1459,2.167,2.1673,0,0,0,0,0,0,2.139,2.1394,2.1465,2.1466,2.1401,2.1418,2.142,2.144,2.1445,2.1443,2.1421,2.1415,2.1445,2.1449,2.1454,2.1554,2.1456,2.146,2.1462,2.1666,2.167,2.1674,0,0,0,0,0,0,2.1388,2.1397,2.1464,2.1429,2.1436,2.1423,2.1446,2.1442,2.1454,2.1447,2.1444,2.1436,2.1443,2.1449,2.1507,2.1554,2.1461,2.1465,2.1662,2.1668,2.1672,2.1753,0,0,0,0,0,0,2.1386,2.1397,2.1428,2.143,2.1438,2.1516,2.1449,2.1445,2.1461,2.1454,2.146,2.1458,2.1441,2.1502,2.1511,2.1557,2.1468,2.1658,2.1665,2.1671,2.1746,2.176,2.1772,0,0,0,0,0,2.1382,2.1449,2.143,2.1438,2.1477,2.1519,2.1524,2.1502,2.1465,2.1496,2.1492,2.1458,2.1547,2.1509,2.1518,2.1566,2.1655,2.1663,2.167,2.174,2.1757,2.1772,0,0,0,0,0,0,2.1453,2.1449,2.1427,2.1497,2.1509,2.1508,2.1547,2.152,2.1543,2.1535,2.1508,2.151,2.1574,2.1576,2.1533,2.1648,2.1595,2.1605,2.1645,2.1661,2.1674,2.1672,2.1471,0,0,0,0,0,2.1476,2.151,2.1505,2.1567,2.1574,2.156,2.1577,2.156,2.1571,2.1576,2.1575,2.1588,2.1619,2.164,2.1668,2.1746,2.1747,2.1784,2.1797,2.1807,2.1816,2.186,2.1876,2.1698,2.1698,2.1698,0,0,2.1525,2.1528,2.1551,2.1582,2.1589,2.1626,2.1564,2.1605,2.1633,2.1582,2.1638,2.1638,2.165,2.172,2.175,2.1723,2.1866,2.1817,2.1825,2.1829,2.1869,2.1886,2.1901,2.1703,2.1702,2.1702,0,0,2.1634,2.1639,2.1691,2.17,2.1712,2.1702,2.1715,2.1719,2.1717,2.1772,2.1735,2.1768,2.1821,2.1832,2.1845,2.1959,2.193,2.1969,2.2037,2.208,2.2094,2.2106,2.2149,2.2164,2.1978,2.1978,2.1978,0,2.1694,2.1747,2.1722,2.1766,2.1782,2.1737,2.1792,2.1801,2.1822,2.1834,2.1803,2.187,2.1876,2.1948,2.1976,2.1987,2.2002,2.1969,2.2094,2.2106,2.2117,2.2157,2.2173,2.1983,2.1982,2.1982,2.1982,0,2.1821,2.1859,2.19,2.1921,2.1941,2.199,2.1974,2.1997,2.1978,2.1972,2.2029,2.2034,2.2063,2.2079,2.206,2.2149,2.2132,2.2098,2.2044,2.2139,2.2177,2.2192,2.199,2.1988,2.1987,2.1986,0,0,2.1974,2.1982,2.1998,2.2007,2.2018,2.2047,2.2094,2.2123,2.2144,2.216,2.22,2.2247,2.2216,2.2231,2.2213,2.225,2.2343,2.2212,2.2212,2.2237,2.2443,2.247,2.2488,2.2324,2.2326,2.2329,2.2443,0,2.2083,2.2164,2.2143,2.2225,2.226,2.2219,2.2261,2.2273,2.2268,2.2299,2.2294,2.2328,2.2284,2.2293,2.2328,2.2325,2.2384,2.2316,2.2362,2.2364,2.2361,2.2507,2.2534,2.2642,2.2457,2.2459,2.2461,0,2.2219,2.2241,2.2326,2.2332,2.2346,2.2384,2.2409,2.2438,2.2451,2.2446,2.2463,2.2438,2.2487,2.2432,2.2499,2.2453,2.247,2.2472,2.2476,2.248,2.2419,2.2516,2.2675,2.2692,2.2484,2.2482,2.248,0,2.2325,2.2375,2.2433,2.2442,2.245,2.2478,2.2483,2.2493,2.2512,2.2534,2.2546,2.2574,2.2589,2.2612,2.2596,2.2557,2.2667,2.261,2.2664,2.2665,2.269,2.2689,2.2855,2.27,2.2699,2.2699,2.2699,0,2.2449,2.2502,2.248,2.2516,2.2576,2.2552,2.2612,2.2612,2.2622,2.2658,2.2624,2.2658,2.2635,2.2668,2.2656,2.2714,2.2721,2.2719,2.2715,2.2723,2.2723,2.2734,2.2727,2.2703,2.2702,2.2701,2.2701,0,2.2576,2.2564,2.2624,2.2627,2.2629,2.2673,2.2676,2.271,2.2704,2.275,2.2759,2.2749,2.2786,2.2773,2.2812,2.2804,2.2879,2.2865,2.2875,2.2872,2.2928,2.2924,2.3108,2.3132,2.296,2.2962,2.2963,0,2.2657,2.2697,2.2705,2.2727,2.2734,2.2769,2.2788,2.2767,2.2788,2.2807,2.2839,2.2873,2.2899,2.2961,2.2958,2.2988,2.2976,2.3039,2.298,2.2987,2.2978,2.2977,2.2981,2.3051,2.3053,2.3054,2.3055,0,2.2801,2.2793,2.2822,2.285,2.2874,2.2894,2.2912,2.2931,2.2911,2.2938,2.2975,2.2996,2.3037,2.3072,2.3099,2.3105,2.3078,2.3074,2.3088,2.3097,2.3101,2.3101,2.2908,2.307,2.3068,2.3067,2.3067,2.3066,2.2909,2.2943,2.2955,2.2989,2.3,2.3017,2.305,2.3048,2.3079,2.311,2.3096,2.314,2.3153,2.3187,2.3197,2.3232,2.3208,2.3228,2.3234,2.324,2.3248,2.3095,2.3237,2.3236,2.3236,2.3236,2.3235,0,2.3053,2.3058,2.3089,2.3115,2.3143,2.3114,2.3132,2.3157,2.3196,2.3211,2.3238,2.3282,2.3316,2.3316,2.3348,2.3376,2.3365,2.3385,2.3384,2.3386,2.3267,2.3252,2.3394,2.3394,2.3394,2.3394,2.3394,2.3394,2.3131,2.3189,2.3183,2.3246,2.3251,2.3294,2.3307,2.3324,2.3336,2.3387,2.3415,2.3414,2.3424,2.3456,2.3487,2.3486,2.35,2.3526,2.3521,2.341,2.3394,2.3379,2.3365,2.3529,2.3529,2.3637,2.3638,2.3639]},{"header":{"parameterUnit":"m.s-1","parameterCategory":1,"la1":30.2991,"la2":30.254,"lo1":-89.0895,"lo2":-89.0444,"dy":0.0017,"dx":0.0017,"nx":28,"ny":28,"refTime":"2024-03-23T09:00:00:Z","depth":0,"parameterNumber":3,"parameterNumberName":"V-component_of_WINDS"},"data":[0,0,0,0,0,0,0,0,0,0,0,0,0,0,0,0,0,0,0,0,0,0,0,0,0,0,0,0,0,0,0,0,0,0,0,0,0,0,0,0,0,0,0,0,0,0,0,0,0,0,0,0,0,0,0,0,0,0,-2.4561,-2.4562,0,-2.4686,-2.4688,-2.4689,-2.4686,-2.4684,-2.4683,-2.4681,-2.4815,-2.482,-2.4825,0,0,0,0,0,0,0,0,0,0,0,0,0,-2.4325,-2.4329,-2.4561,-2.4562,-2.4564,-2.4686,-2.4688,-2.469,-2.4686,-2.4684,-2.4682,-2.468,-2.4813,-2.4819,-2.4825,0,0,0,0,0,0,0,0,0,0,0,0,0,-2.4437,-2.433,-2.4561,-2.4577,-2.458,-2.4686,-2.4688,-2.469,-2.4687,-2.4684,-2.4682,-2.4679,-2.4811,-2.4818,-2.4826,-2.4926,0,0,-2.485,-2.4853,0,0,0,0,0,0,0,0,-2.443,-2.4445,-2.4573,-2.4576,-2.4579,-2.4668,-2.4654,-2.4769,-2.4687,-2.4646,-2.4681,-2.4678,-2.4768,-2.4779,-2.4809,-2.4932,-2.4938,-2.4851,-2.4855,-2.4859,-2.4861,0,0,0,0,0,0,0,-2.4422,-2.444,-2.4611,-2.4575,-2.4579,-2.458,-2.4593,-2.4676,-2.4721,-2.465,-2.465,-2.4664,-2.477,-2.4801,-2.4812,-2.494,-2.485,-2.4857,-2.4862,-2.4865,-2.5153,-2.5156,0,0,0,0,0,0,-2.441,-2.4433,-2.4607,-2.4614,-2.4497,-2.4586,-2.4601,-2.4642,-2.4719,-2.4729,-2.4666,-2.4664,-2.4789,-2.4803,-2.4817,-2.4939,-2.4859,-2.4866,-2.487,-2.515,-2.5154,-2.5157,0,0,0,0,0,0,-2.4405,-2.4426,-2.4602,-2.4524,-2.4546,-2.4593,-2.4639,-2.4646,-2.4678,-2.4732,-2.4741,-2.469,-2.4788,-2.4806,-2.4899,-2.4944,-2.4869,-2.4876,-2.5147,-2.5151,-2.5155,-2.5185,0,0,0,0,0,0,-2.4399,-2.4424,-2.4461,-2.4525,-2.4551,-2.468,-2.4642,-2.465,-2.469,-2.4688,-2.4757,-2.4766,-2.4787,-2.4887,-2.4906,-2.4953,-2.4882,-2.5143,-2.5149,-2.5154,-2.518,-2.519,-2.5198,0,0,0,0,0,-2.439,-2.4465,-2.4463,-2.4484,-2.4597,-2.4682,-2.4697,-2.4719,-2.4694,-2.4732,-2.4768,-2.4763,-2.4936,-2.4897,-2.4918,-2.4968,-2.514,-2.5147,-2.5154,-2.5176,-2.5188,-2.5198,0,0,0,0,0,0,-2.4407,-2.4474,-2.4472,-2.4569,-2.462,-2.4682,-2.4731,-2.4731,-2.4791,-2.4787,-2.4813,-2.4828,-2.4922,-2.4954,-2.491,-2.5069,-2.5035,-2.5046,-2.5045,-2.5056,-2.5065,-2.5055,-2.4889,0,0,0,0,0,-2.4422,-2.4484,-2.4539,-2.462,-2.4645,-2.4684,-2.4722,-2.4734,-2.4788,-2.481,-2.4852,-2.4907,-2.4973,-2.5017,-2.5081,-2.5185,-2.5201,-2.523,-2.5239,-2.5246,-2.5256,-2.5314,-2.5328,-2.5179,-2.5179,-2.5179,0,0,-2.4454,-2.4498,-2.4535,-2.4625,-2.4665,-2.4731,-2.4702,-2.4772,-2.4821,-2.4822,-2.4911,-2.4944,-2.5007,-2.5106,-2.5152,-2.5136,-2.53,-2.5254,-2.526,-2.5266,-2.5323,-2.5337,-2.5349,-2.5184,-2.5183,-2.5182,0,0,-2.4545,-2.4584,-2.4656,-2.4697,-2.4758,-2.4783,-2.4801,-2.4863,-2.4884,-2.4974,-2.4976,-2.5036,-2.515,-2.5195,-2.5233,-2.5342,-2.5341,-2.5362,-2.5409,-2.5466,-2.5478,-2.5489,-2.5529,-2.5543,-2.5372,-2.5372,-2.5372,0,-2.4577,-2.4673,-2.4693,-2.4763,-2.4803,-2.4805,-2.4879,-2.4919,-2.4999,-2.5028,-2.5008,-2.5152,-2.5194,-2.5304,-2.5331,-2.5361,-2.5383,-2.5354,-2.5474,-2.5485,-2.5496,-2.5534,-2.5549,-2.5374,-2.5374,-2.5373,-2.5373,0,-2.4711,-2.4778,-2.4829,-2.4904,-2.495,-2.5022,-2.5054,-2.5099,-2.5107,-2.5135,-2.5228,-2.5279,-2.5354,-2.5381,-2.5391,-2.5494,-2.5482,-2.5468,-2.5434,-2.5512,-2.5548,-2.5563,-2.5377,-2.5376,-2.5376,-2.5375,0,0,-2.4816,-2.4901,-2.492,-2.4954,-2.5023,-2.5076,-2.5149,-2.522,-2.5258,-2.5314,-2.5377,-2.5474,-2.5462,-2.5505,-2.552,-2.557,-2.5654,-2.555,-2.5552,-2.5568,-2.5772,-2.5782,-2.5798,-2.5654,-2.5657,-2.5659,-2.5767,0,-2.4915,-2.5042,-2.5062,-2.5175,-2.5238,-2.5241,-2.5305,-2.5355,-2.5383,-2.5442,-2.5474,-2.5542,-2.5521,-2.5547,-2.5597,-2.5633,-2.5695,-2.5626,-2.5714,-2.5717,-2.5699,-2.5817,-2.5828,-2.5927,-2.5781,-2.5784,-2.5785,0,-2.5047,-2.5104,-2.5222,-2.5282,-2.531,-2.5366,-2.5434,-2.549,-2.5548,-2.5565,-2.5613,-2.5623,-2.5701,-2.5663,-2.5772,-2.5724,-2.5762,-2.5785,-2.579,-2.5799,-2.5756,-2.5831,-2.5959,-2.5974,-2.5808,-2.5806,-2.5804,0,-2.5112,-2.5219,-2.5304,-2.5334,-2.5406,-2.5446,-2.5478,-2.5533,-2.5575,-2.5635,-2.5663,-2.5732,-2.5771,-2.5825,-2.5853,-2.5823,-2.5961,-2.5925,-2.5979,-2.5979,-2.6008,-2.6006,-2.6145,-2.6032,-2.6031,-2.6031,-2.6031,0,-2.5221,-2.5293,-2.5334,-2.5387,-2.5469,-2.5492,-2.5574,-2.5606,-2.5655,-2.5715,-2.5722,-2.5779,-2.5813,-2.5875,-2.5899,-2.5986,-2.6003,-2.6021,-2.6026,-2.602,-2.6018,-2.6046,-2.604,-2.6035,-2.6034,-2.6033,-2.6033,0,-2.5308,-2.5338,-2.5431,-2.5491,-2.5509,-2.5566,-2.562,-2.5672,-2.57,-2.5776,-2.5795,-2.584,-2.5914,-2.5948,-2.604,-2.6055,-2.6155,-2.6156,-2.6135,-2.6137,-2.6189,-2.6184,-2.6352,-2.6375,-2.6245,-2.6246,-2.6247,0,-2.5375,-2.5431,-2.5497,-2.5537,-2.557,-2.5634,-2.5677,-2.5703,-2.5747,-2.5818,-2.5862,-2.5935,-2.5996,-2.6114,-2.6156,-2.6227,-2.623,-2.6284,-2.6241,-2.6233,-2.6232,-2.6228,-2.6235,-2.6291,-2.6293,-2.6294,-2.6295,0,-2.5492,-2.5504,-2.5564,-2.5629,-2.568,-2.5733,-2.5786,-2.5819,-2.5854,-2.5904,-2.5978,-2.6025,-2.6118,-2.6192,-2.6266,-2.6302,-2.6305,-2.6308,-2.6324,-2.6319,-2.6305,-2.6314,-2.6157,-2.6304,-2.6303,-2.6302,-2.6302,-2.6301,-2.5572,-2.5621,-2.5676,-2.5743,-2.5785,-2.5834,-2.5886,-2.592,-2.5982,-2.6058,-2.6071,-2.6151,-2.6209,-2.6308,-2.6346,-2.6411,-2.6398,-2.6422,-2.6428,-2.6434,-2.6437,-2.6294,-2.6424,-2.6424,-2.6424,-2.6424,-2.6424,0,-2.5689,-2.5724,-2.5785,-2.5858,-2.5911,-2.5907,-2.5966,-2.6011,-2.6081,-2.6134,-2.6193,-2.6279,-2.6351,-2.6399,-2.6473,-2.6515,-2.6519,-2.6534,-2.6531,-2.654,-2.6443,-2.6422,-2.653,-2.653,-2.653,-2.6529,-2.6529,-2.6529,-2.5756,-2.5841,-2.5859,-2.5966,-2.6001,-2.6078,-2.6111,-2.6158,-2.62,-2.6296,-2.6355,-2.6385,-2.6437,-2.6514,-2.658,-2.6593,-2.662,-2.6636,-2.6648,-2.6557,-2.6546,-2.6536,-2.6516,-2.6641,-2.6641,-2.6739,-2.674,-2.674]}]]